Printer-friendly version

IAU Minor Planet Center

Minor Planet Center

MPEC 2007-C25 : 2007 CP5

The following Minor Planet Electronic Circular may be linked-to from your own Web pages, but must not otherwise be redistributed electronically.


Read MPEC 2007-C24 Read MPEC 2007-C26


M.P.E.C. 2007-C25                                Issued 2007 Feb. 8, 14:03 UT

     The Minor Planet Electronic Circulars contain information on unusual
         minor planets and routine data on comets.  They are published
   on behalf of Commission 20 of the International Astronomical Union by the
          Minor Planet Center, Smithsonian Astrophysical Observatory,
                          Cambridge, MA 02138, U.S.A.

             Prepared using the Tamkin Foundation Computer Network

                              MPC@CFA.HARVARD.EDU
          URL http://cfa-www.harvard.edu/iau/mpc.html  ISSN 1523-6714

                                   2007 CP5

Observations:
     K07C05P* C2007 02 07.30427 09 56 55.32 +18 20 47.5          18.3 V EC025703
     K07C05P  C2007 02 07.30999 09 56 56.11 +18 22 16.2          18.0 V EC025703
     K07C05P  C2007 02 07.31575 09 56 56.90 +18 23 45.3          18.4 V EC025703
     K07C05P  C2007 02 07.32156 09 56 57.69 +18 25 15.0          17.6 V EC025703
     K07C05P  C2007 02 07.35582 09 57 02.66 +18 34 07.8          18.2 V EC025703
     K07C05P  C2007 02 07.35817 09 57 02.91 +18 34 44.5          17.9 V EC025703
     K07C05P  C2007 02 07.36053 09 57 03.38 +18 35 20.6          17.7 V EC025703
     K07C05P  C2007 02 07.36288 09 57 03.70 +18 35 57.6          17.4 V EC025703
     K07C05P  C2007 02 08.23220 09 59 35.34 +22 24 41.8          18.2 V EC025G96
     K07C05P  C2007 02 08.23917 09 59 36.45 +22 26 35.7          17.6 V EC025703
     K07C05P  C2007 02 08.23995 09 59 36.60 +22 26 46.7          18.1 V EC025G96
     K07C05P  C2007 02 08.24038 09 59 36.63 +22 26 53.3          18.0 V EC025703
     K07C05P  C2007 02 08.24161 09 59 36.88 +22 27 13.3          17.9 V EC025703
     K07C05P  C2007 02 08.24282 09 59 37.10 +22 27 33.1          18.1 V EC025703
     K07C05P  C2007 02 08.24771 09 59 37.82 +22 28 51.2          18.1 V EC025G96
     K07C05P 5C2007 02 08.27460609 59 42.435+22 36 01.57         17.5 R EC025673
     K07C05P 5C2007 02 08.28062509 59 43.425+22 37 38.65                EC025673
     K07C05P 5C2007 02 08.28780109 59 44.531+22 39 34.09                EC025673
     K07C05P 5C2007 02 08.28965309 59 44.792+22 40 03.80                EC025673
     K07C05P  C2007 02 08.35833 09 59 55.18 +22 58 31.2          17.9 R EC025854
     K07C05P  C2007 02 08.36007 09 59 55.54 +22 58 58.9          17.9 R EC025854
     K07C05P  C2007 02 08.36065 09 59 55.59 +22 59 08.7          18.0 R EC025854

Observer details:
673 Table Mountain Observatory, Wrightwood.  Observer J. Young.  0.61-m f/16
    Cassegrain + CCD.
703 Catalina Sky Survey.  Observer R. E. Hill.  Measurers E. C. Beshore,
    E. J. Christensen, G. J. Garradd, A. R. Gibbs, A. D. Grauer, R. E. Hill,
    R. A. Kowalski, S. M. Larson, R. H. McNaught.  0.68-m Schmidt + CCD.
854 Sabino Canyon Observatory, Tucson.  Observer J. E. McGaha.  0.36-m f/10.0
    Schmidt-Cassegrain + CCD.
G96 Mt. Lemmon Survey.  Observer R. A. Kowalski.  Measurers E. C. Beshore,
    E. J. Christensen, G. J. Garradd, A. R. Gibbs, A. D. Grauer, R. E. Hill,
    R. A. Kowalski, S. M. Larson, R. H. McNaught.  1.5-m reflector + CCD.

Orbital elements:
2007 CP5                                                 Earth MOID = 0.1461 AU
Epoch 2007 Apr. 10.0 TT = JDT 2454200.5                 MPC
M   9.79971              (2000.0)            P               Q
n   0.44312022     Peri.   41.12245     -0.91290758     +0.08378873
a   1.7039428      Node   137.97082     -0.05304671     -0.99475799
e   0.3758869      Incl.   36.63153     +0.40470459     +0.05861739
P   2.22           H   21.3           G   0.15           U   9
Residuals in seconds of arc
070207 703  0.6+  0.2+    070208 G96  0.2-  0.3-    070208 673  0.4+  0.1+
070207 703  0.2+  0.1+    070208 703  0.2-  1.4+    070208 673  0.1-  0.0
070207 703  0.3-  0.2-    070208 G96  0.1+  0.1-    070208 673  0.5-  0.1-
070207 703  0.9-  0.7-    070208 703  0.4-  0.5-    070208 854  0.6-  0.1+
070207 703  0.1+  0.2+    070208 703  0.3+  0.3-    070208 854  0.6+  0.2-
070207 703  1.1-  0.4+    070208 703  0.7+  0.0     070208 854  0.0   0.3+
070207 703  0.8+  0.1-    070208 G96  0.2-  0.5-
070207 703  0.5+  0.4+    070208 673  0.0   0.1-

Ephemeris:
2007 CP5                 a,e,i = 1.70, 0.38, 37                  q = 1.0635
Date    TT    R. A. (2000) Decl.     Delta      r     Elong.  Phase     V
2007 02 09    10 01.90   +25 51.8    0.147    1.130   166.6    11.7    18.1
2007 02 11    10 08.86   +35 00.6    0.146    1.123   158.0    19.2    18.3
2007 02 13    10 17.33   +43 57.4    0.149    1.117   148.8    27.2    18.6
2007 02 15    10 27.81   +52 13.8    0.156    1.111   140.0    34.8    18.9
2007 02 17    10 41.03   +59 31.3    0.165    1.106   132.1    41.5    19.2
2007 02 19    10 58.06   +65 42.6    0.178    1.100   125.1    47.3    19.5
2007 02 21    11 20.43   +70 48.4    0.192    1.095   119.2    52.0    19.8
2007 02 23    11 50.23   +74 52.4    0.208    1.091   114.1    55.9    20.1
2007 02 25    12 29.95   +77 58.5    0.225    1.087   109.7    59.0    20.4
2007 02 27    13 21.28   +80 09.0    0.243    1.083   106.0    61.6    20.6
2007 03 01    14 22.32   +81 25.8    0.261    1.079   102.8    63.6    20.8
2007 03 03    15 25.56   +81 54.7    0.280    1.076   100.0    65.1    21.0
2007 03 05    16 21.90   +81 47.6    0.298    1.073    97.6    66.4    21.2
2007 03 07    17 06.80   +81 18.3    0.317    1.070    95.5    67.3    21.3
2007 03 09    17 40.69   +80 38.2    0.336    1.068    93.7    68.0    21.5
2007 03 11    18 05.92   +79 53.9    0.355    1.067    92.1    68.5    21.6
2007 03 13    18 24.83   +79 09.4    0.373    1.065    90.6    68.9    21.7
2007 03 15    18 39.17   +78 26.5    0.391    1.064    89.3    69.1    21.8
2007 03 17    18 50.21   +77 45.9    0.409    1.064    88.2    69.2    21.9
2007 03 19    18 58.80   +77 08.0    0.427    1.063    87.2    69.2    22.0
2007 03 21    19 05.53   +76 32.7    0.444    1.064    86.3    69.1    22.1

Timothy B. Spahr             (C) Copyright 2007 MPC           M.P.E.C. 2007-C25

Read MPEC 2007-C24 Read MPEC 2007-C26


Our Web policy. Index to the CBAT/MPC/ICQ pages.


Valid HTML 4.01!